World > North America > United States > Illinois > Egyptian Hills  

Egyptian Hills, IL Hourly Weather Updates

Feedback E-mail the Weather

Quick Clicks

Egyptian Hills, IL Weather Maps

°F °C°F °C
Egyptian Hills Weather Map
UTC Time: 6/13/2024, 08:21
Your Time:

Egyptian Hills, IL Regional Weather

Expires:202406130900;;932097
ASUS43 KLOT 130810
RWRIL 

ILLINOIS REGIONAL WEATHER ROUNDUP
NATIONAL WEATHER SERVICE CHICAGO/ROMEOVILLE IL
300 AM CDT THU JUN 13 2024

NOTE: "FAIR" INDICATES FEW OR NO CLOUDS BELOW 12,000 FEET WITH NO
SIGNIFICANT WEATHER AND/OR OBSTRUCTIONS TO VISIBILITY.

* THESE STATIONS ARE NOT UNDER NWS QUALITY CONTROL. THEY ALSO MAY NOT
  REPORT WEATHER SUCH AS PRECIPITATION OR FOG.


ILZ064>066-069>071-074>076-080>082-084>086-088>090-092>094-130900-
SOUTH-CENTRAL ILLINOIS
  
CITY           SKY/WX    TMP DP  RH WIND       PRES   REMARKS
CARBONDALE     CLEAR     62  59  90 CALM      29.95S TC  17           
CAIRO*         CLEAR     63  62  97 CALM      29.96S TC  17           
EFFINGHAM*     CLEAR     64  60  87 SE3       29.95F TC  18           
MARION         CLEAR     62  55  76 S5        29.96S TC  17           
MT. VERNON     CLEAR     60  60 100 CALM      29.95S TC  16           
CENTRALIA*     CLEAR     67  59  74 S5        29.94S TC  20           
SALEM*         CLEAR     70  60  69 S5        29.94S TC  21           
METROPOLIS*    CLEAR     56  55  97 CALM      29.97R TC  14           
$$


SKY/WX - Weather  TMP - Temperature  DP - Dew Point  RH - Humidity
WIND - Wind Direction/Speed PRES - Barometric Pressure VSB - Visibility
WCI - Wind Chill Index E13G22 Wind - East Wind 13 mph/Gusts of 22 mph

Trending Headlines

Trending Entertainment Headlines

Egyptian Hills Radar Loop

Use the map search tool if you want to place a location marker on the radar map...

Egyptian Hills Quick Facts

National Two Day Weather Forecast


E-mail the Egyptian Hills Weather Forecast

Voice your opinion or tell us about page issues...